Year,Month,Day,Hour,Minute,Value (Times are PST for temperature in C)
2007,12,04,00,00,13.10
2007,12,04,00,01,13.20
2007,12,04,00,02,13.20
2007,12,04,00,03,13.20
2007,12,04,00,04,13.20
2007,12,04,00,05,13.20
2007,12,04,00,06,13.20
2007,12,04,00,07,13.30
2007,12,04,00,08,13.30
2007,12,04,00,09,13.30
2007,12,04,00,10,13.20
2007,12,04,00,11,13.20
2007,12,04,00,12,13.10
2007,12,04,00,13,13.10
2007,12,04,00,14,13.00
2007,12,04,00,15,12.90
2007,12,04,00,16,12.90
2007,12,04,00,17,12.80
2007,12,04,00,18,12.80
2007,12,04,00,19,12.70
2007,12,04,00,20,12.70
2007,12,04,00,21,12.70
2007,12,04,00,22,12.70
2007,12,04,00,23,12.70
2007,12,04,00,24,12.70
2007,12,04,00,25,12.70
2007,12,04,00,26,12.70
2007,12,04,00,27,12.70
2007,12,04,00,28,12.70
2007,12,04,00,29,12.70
2007,12,04,00,30,12.70
2007,12,04,00,31,12.70
2007,12,04,00,32,12.70
2007,12,04,00,33,12.60
2007,12,04,00,34,12.60
2007,12,04,00,35,12.60
2007,12,04,00,36,12.60
2007,12,04,00,37,12.50
2007,12,04,00,38,12.50
2007,12,04,00,39,12.50
2007,12,04,00,40,12.50
2007,12,04,00,41,12.60
2007,12,04,00,42,12.60
2007,12,04,00,43,12.60
2007,12,04,00,44,12.60
2007,12,04,00,45,12.50
2007,12,04,00,46,12.40
2007,12,04,00,47,12.40
2007,12,04,00,48,12.30
2007,12,04,00,49,12.20
2007,12,04,00,50,12.20
2007,12,04,00,51,12.20
2007,12,04,00,52,12.10
2007,12,04,00,53,12.00
2007,12,04,00,54,12.00
2007,12,04,00,55,12.00
2007,12,04,00,56,12.00
2007,12,04,00,57,12.00
2007,12,04,00,58,11.90
2007,12,04,00,59,12.00
2007,12,04,01,00,12.00
2007,12,04,01,01,12.00
2007,12,04,01,02,11.90
2007,12,04,01,03,11.90
2007,12,04,01,04,11.90
2007,12,04,01,05,12.00
2007,12,04,01,06,12.00
2007,12,04,01,07,12.00
2007,12,04,01,08,12.10
2007,12,04,01,09,12.20
2007,12,04,01,10,12.30
2007,12,04,01,11,12.40
2007,12,04,01,12,12.50
2007,12,04,01,13,12.50
2007,12,04,01,14,12.50
2007,12,04,01,15,12.50
2007,12,04,01,16,12.40
2007,12,04,01,17,12.40
2007,12,04,01,18,12.30
2007,12,04,01,19,12.30
2007,12,04,01,20,12.30
2007,12,04,01,21,12.20
2007,12,04,01,22,12.30
2007,12,04,01,23,12.30
2007,12,04,01,24,12.30
2007,12,04,01,25,12.40
2007,12,04,01,26,12.40
2007,12,04,01,27,12.40
2007,12,04,01,28,12.30
2007,12,04,01,29,12.30
2007,12,04,01,30,12.30
2007,12,04,01,31,12.40
2007,12,04,01,32,12.40
2007,12,04,01,33,12.40
2007,12,04,01,34,12.50
2007,12,04,01,35,12.50
2007,12,04,01,36,12.50
2007,12,04,01,37,12.40
2007,12,04,01,38,12.40
2007,12,04,01,39,12.40
2007,12,04,01,40,12.40
2007,12,04,01,41,12.40
2007,12,04,01,42,12.40
2007,12,04,01,43,12.40
2007,12,04,01,44,12.30
2007,12,04,01,45,12.30
2007,12,04,01,46,12.30
2007,12,04,01,47,12.20
2007,12,04,01,48,12.20
2007,12,04,01,53,12.40
2007,12,04,01,54,12.40
2007,12,04,01,55,12.40
2007,12,04,01,56,12.40
2007,12,04,01,57,12.50
2007,12,04,01,58,12.50
2007,12,04,01,59,12.70
2007,12,04,02,00,12.80
2007,12,04,02,01,12.80
2007,12,04,02,02,12.80
2007,12,04,02,03,12.80
2007,12,04,02,04,12.80
2007,12,04,02,05,12.80
2007,12,04,02,06,12.80
2007,12,04,02,07,12.80
2007,12,04,02,08,12.80
2007,12,04,02,09,12.70
2007,12,04,02,10,12.70
2007,12,04,02,11,12.70
2007,12,04,02,12,12.70
2007,12,04,02,13,12.60
2007,12,04,02,14,12.60
2007,12,04,02,15,12.60
2007,12,04,02,16,12.50
2007,12,04,02,17,12.50
2007,12,04,02,18,12.40
2007,12,04,02,19,12.40
2007,12,04,02,20,12.30
2007,12,04,02,21,12.40
2007,12,04,02,22,12.30
2007,12,04,02,23,12.40
2007,12,04,02,24,12.40
2007,12,04,02,25,12.30
2007,12,04,02,26,12.30
2007,12,04,02,29,12.20
2007,12,04,02,30,12.20
2007,12,04,02,31,12.20
2007,12,04,02,32,12.10
2007,12,04,02,33,12.10
2007,12,04,02,34,12.10
2007,12,04,02,35,12.10
2007,12,04,02,36,12.10
2007,12,04,02,37,12.10
2007,12,04,02,38,12.10
2007,12,04,02,39,12.10
2007,12,04,02,40,12.10
2007,12,04,02,41,12.10
2007,12,04,02,42,12.10
2007,12,04,02,43,12.10
2007,12,04,02,44,12.10
2007,12,04,02,45,12.00
2007,12,04,02,46,12.00
2007,12,04,02,47,12.00
2007,12,04,02,48,12.00
2007,12,04,02,49,12.00
2007,12,04,02,50,12.00
2007,12,04,02,51,12.00
2007,12,04,02,52,12.00
2007,12,04,02,53,12.00
2007,12,04,02,54,11.90
2007,12,04,02,55,11.90
2007,12,04,02,56,11.90
2007,12,04,02,57,11.90
2007,12,04,02,58,11.80
2007,12,04,02,59,11.80
2007,12,04,03,00,11.80
2007,12,04,03,01,11.80
2007,12,04,03,02,11.80
2007,12,04,03,03,11.80
2007,12,04,03,04,11.80
2007,12,04,03,05,11.80
2007,12,04,03,06,11.90
2007,12,04,03,07,11.90
2007,12,04,03,08,11.90
2007,12,04,03,09,12.00
2007,12,04,03,10,12.00
2007,12,04,03,11,12.10
2007,12,04,03,12,12.10
2007,12,04,03,13,12.10
2007,12,04,03,14,12.10
2007,12,04,03,15,12.10
2007,12,04,03,16,12.10
2007,12,04,03,17,12.10
2007,12,04,03,18,12.20
2007,12,04,03,19,12.20
2007,12,04,03,20,12.10
2007,12,04,03,21,12.10
2007,12,04,03,22,12.10
2007,12,04,03,23,12.10
2007,12,04,03,24,12.10
2007,12,04,03,25,12.10
2007,12,04,03,26,12.10
2007,12,04,03,27,12.10
2007,12,04,03,28,12.10
2007,12,04,03,29,12.10
2007,12,04,03,30,12.20
2007,12,04,03,31,12.20
2007,12,04,03,32,12.30
2007,12,04,03,33,12.30
2007,12,04,03,34,12.30
2007,12,04,03,35,12.30
2007,12,04,03,36,12.30
2007,12,04,03,37,12.30
2007,12,04,03,38,12.30
2007,12,04,03,39,12.30
2007,12,04,03,40,12.40
2007,12,04,03,41,12.30
2007,12,04,03,42,12.30
2007,12,04,03,43,12.30
2007,12,04,03,44,12.30
2007,12,04,03,45,12.30
2007,12,04,03,46,12.30
2007,12,04,03,47,12.30
2007,12,04,03,48,12.30
2007,12,04,03,49,12.40
2007,12,04,03,50,12.40
2007,12,04,03,51,12.30
2007,12,04,03,52,12.30
2007,12,04,03,53,12.30
2007,12,04,03,54,12.30
2007,12,04,03,55,12.30
2007,12,04,03,56,12.40
2007,12,04,03,57,12.40
2007,12,04,03,58,12.40
2007,12,04,03,59,12.40
2007,12,04,04,00,12.40
2007,12,04,04,01,12.30
2007,12,04,04,02,12.30
2007,12,04,04,03,12.30
2007,12,04,04,04,12.30
2007,12,04,04,05,12.40
2007,12,04,04,06,12.40
2007,12,04,04,07,12.40
2007,12,04,04,08,12.30
2007,12,04,04,09,12.30
2007,12,04,04,10,12.20
2007,12,04,04,11,12.20
2007,12,04,04,12,12.30
2007,12,04,04,13,12.40
2007,12,04,04,14,12.40
2007,12,04,04,15,12.30
2007,12,04,04,16,12.30
2007,12,04,04,17,12.30
2007,12,04,04,18,12.30
2007,12,04,04,19,12.30
2007,12,04,04,20,12.30
2007,12,04,04,21,12.30
2007,12,04,04,22,12.20
2007,12,04,04,23,12.20
2007,12,04,04,24,12.20
2007,12,04,04,25,12.20
2007,12,04,04,26,12.30
2007,12,04,04,27,12.30
2007,12,04,04,28,12.30
2007,12,04,04,29,12.30
2007,12,04,04,30,12.30
2007,12,04,04,31,12.30
2007,12,04,04,32,12.40
2007,12,04,04,33,12.40
2007,12,04,04,34,12.40
2007,12,04,04,35,12.40
2007,12,04,04,36,12.40
2007,12,04,04,37,12.40
2007,12,04,04,38,12.30
2007,12,04,04,39,12.30
2007,12,04,04,40,12.30
2007,12,04,04,41,12.30
2007,12,04,04,42,12.30
2007,12,04,04,43,12.30
2007,12,04,04,44,12.20
2007,12,04,04,45,12.20
2007,12,04,04,46,12.20
2007,12,04,04,47,12.30
2007,12,04,04,48,12.40
2007,12,04,04,49,12.50
2007,12,04,04,50,12.50
2007,12,04,04,51,12.50
2007,12,04,04,52,12.40
2007,12,04,04,53,12.40
2007,12,04,04,54,12.30
2007,12,04,04,55,12.30
2007,12,04,04,56,12.40
2007,12,04,04,57,12.50
2007,12,04,04,58,12.50
2007,12,04,04,59,12.50
2007,12,04,05,00,12.50
2007,12,04,05,01,12.50
2007,12,04,05,02,12.50
2007,12,04,05,03,12.60
2007,12,04,05,04,12.50
2007,12,04,05,05,12.50
2007,12,04,05,06,12.60
2007,12,04,05,07,12.60
2007,12,04,05,08,12.60
2007,12,04,05,09,12.60
2007,12,04,05,10,12.60
2007,12,04,05,11,12.50
2007,12,04,05,12,12.50
2007,12,04,05,13,12.50
2007,12,04,05,14,12.40
2007,12,04,05,15,12.40
2007,12,04,05,16,12.30
2007,12,04,05,17,12.30
2007,12,04,05,18,12.30
2007,12,04,05,19,12.20
2007,12,04,05,20,12.20
2007,12,04,05,21,12.20
2007,12,04,05,22,12.10
2007,12,04,05,23,12.10
2007,12,04,05,24,12.20
2007,12,04,05,25,12.30
2007,12,04,05,26,12.30
2007,12,04,05,27,12.40
2007,12,04,05,28,12.40
2007,12,04,05,29,12.40
2007,12,04,05,30,12.30
2007,12,04,05,31,12.30
2007,12,04,05,32,12.30
2007,12,04,05,33,12.30
2007,12,04,05,34,12.30
2007,12,04,05,35,12.30
2007,12,04,05,36,12.30
2007,12,04,05,37,12.10
2007,12,04,05,38,11.80
2007,12,04,05,39,11.60
2007,12,04,05,40,11.50
2007,12,04,05,41,11.80
2007,12,04,05,42,12.20
2007,12,04,05,43,12.40
2007,12,04,05,44,12.30
2007,12,04,05,45,12.30
2007,12,04,05,46,12.30
2007,12,04,05,47,12.30
2007,12,04,05,48,12.20
2007,12,04,05,49,12.20
2007,12,04,05,50,12.20
2007,12,04,05,51,12.30
2007,12,04,05,52,12.20
2007,12,04,05,53,12.20
2007,12,04,05,54,12.20
2007,12,04,05,55,12.20
2007,12,04,05,56,12.10
2007,12,04,05,57,12.10
2007,12,04,05,58,12.00
2007,12,04,05,59,12.00
2007,12,04,06,00,12.00
2007,12,04,06,01,12.00
2007,12,04,06,02,12.00
2007,12,04,06,03,12.10
2007,12,04,06,04,12.10
2007,12,04,06,05,12.10
2007,12,04,06,06,12.20
2007,12,04,06,07,12.30
2007,12,04,06,08,12.30
2007,12,04,06,09,12.30
2007,12,04,06,10,12.30
2007,12,04,06,11,12.30
2007,12,04,06,12,12.30
2007,12,04,06,13,12.30
2007,12,04,06,14,12.30
2007,12,04,06,15,12.30
2007,12,04,06,16,12.20
2007,12,04,06,17,12.20
2007,12,04,06,18,12.10
2007,12,04,06,19,12.00
2007,12,04,06,20,11.90
2007,12,04,06,21,11.80
2007,12,04,06,22,11.80
2007,12,04,06,23,11.70
2007,12,04,06,24,11.60
2007,12,04,06,25,11.50
2007,12,04,06,26,11.40
2007,12,04,06,27,11.30
2007,12,04,06,28,11.30
2007,12,04,06,29,11.20
2007,12,04,06,30,11.20
2007,12,04,06,31,11.20
2007,12,04,06,32,11.10
2007,12,04,06,33,11.10
2007,12,04,06,34,11.00
2007,12,04,06,35,11.00
2007,12,04,06,36,11.00
2007,12,04,06,37,11.00
2007,12,04,06,38,10.90
2007,12,04,06,39,10.90
2007,12,04,06,40,10.90
2007,12,04,06,41,10.90
2007,12,04,06,42,10.80
2007,12,04,06,43,10.80
2007,12,04,06,44,10.80
2007,12,04,06,45,10.80
2007,12,04,06,46,10.80
2007,12,04,06,47,10.70
2007,12,04,06,48,10.70
2007,12,04,06,49,10.70
2007,12,04,06,50,10.70
2007,12,04,06,51,10.70
2007,12,04,06,52,10.60
2007,12,04,06,53,10.60
2007,12,04,06,54,10.60
2007,12,04,06,55,10.60
2007,12,04,06,56,10.60
2007,12,04,06,57,10.60
2007,12,04,06,58,10.50
2007,12,04,06,59,10.50
2007,12,04,07,00,10.50
2007,12,04,07,01,10.50
2007,12,04,07,02,10.50
2007,12,04,07,03,10.50
2007,12,04,07,04,10.50
2007,12,04,07,05,10.50
2007,12,04,07,06,10.50
2007,12,04,07,07,10.40
2007,12,04,07,08,10.40
2007,12,04,07,09,10.40
2007,12,04,07,10,10.50
2007,12,04,07,11,10.50
2007,12,04,07,12,10.60
2007,12,04,07,13,10.60
2007,12,04,07,14,10.60
2007,12,04,07,15,10.60
2007,12,04,07,16,10.60
2007,12,04,07,17,10.60
2007,12,04,07,18,10.60
2007,12,04,07,19,10.50
2007,12,04,07,20,10.50
2007,12,04,07,21,10.50
2007,12,04,07,22,10.50
2007,12,04,07,23,10.50
2007,12,04,07,24,10.40
2007,12,04,07,25,10.40
2007,12,04,07,26,10.50
2007,12,04,07,27,10.50
2007,12,04,07,28,10.50
2007,12,04,07,29,10.50
2007,12,04,07,30,10.50
2007,12,04,07,31,10.50
2007,12,04,07,32,10.50
2007,12,04,07,33,10.60
2007,12,04,07,34,10.60
2007,12,04,07,35,10.60
2007,12,04,07,36,10.60
2007,12,04,07,37,10.60
2007,12,04,07,38,10.60
2007,12,04,07,39,10.60
2007,12,04,07,40,10.60
2007,12,04,07,41,10.60
2007,12,04,07,42,10.60
2007,12,04,07,43,10.50
2007,12,04,07,44,10.50
2007,12,04,07,45,10.50
2007,12,04,07,46,10.50
2007,12,04,07,47,10.50
2007,12,04,07,48,10.50
2007,12,04,07,49,10.40
2007,12,04,07,50,10.40
2007,12,04,07,51,10.40
2007,12,04,07,52,10.40
2007,12,04,07,53,10.40
2007,12,04,07,54,10.30
2007,12,04,07,55,10.30
2007,12,04,07,56,10.20
2007,12,04,07,57,10.20
2007,12,04,07,58,10.10
2007,12,04,07,59,10.10
2007,12,04,08,00,10.00
2007,12,04,08,01,9.90
2007,12,04,08,02,9.90
2007,12,04,08,03,9.80
2007,12,04,08,04,9.70
2007,12,04,08,05,9.70
2007,12,04,08,06,9.70
2007,12,04,08,07,9.60
2007,12,04,08,08,9.60
2007,12,04,08,09,9.60
2007,12,04,08,10,9.60
2007,12,04,08,11,9.50
2007,12,04,08,12,9.40
2007,12,04,08,13,9.40
2007,12,04,08,14,9.40
2007,12,04,08,15,9.40
2007,12,04,08,16,9.40
2007,12,04,08,17,9.40
2007,12,04,08,18,9.40
2007,12,04,08,19,9.30
2007,12,04,08,20,9.30
2007,12,04,08,21,9.30
2007,12,04,08,22,9.30
2007,12,04,08,23,9.30
2007,12,04,08,24,9.30
2007,12,04,08,25,9.30
2007,12,04,08,26,9.30
2007,12,04,08,27,9.50
2007,12,04,08,28,9.60
2007,12,04,08,29,9.70
2007,12,04,08,30,9.80
2007,12,04,08,31,9.90
2007,12,04,08,32,10.00
2007,12,04,08,33,10.00
2007,12,04,08,34,10.10
2007,12,04,08,35,10.20
2007,12,04,08,36,10.20
2007,12,04,08,37,10.20
2007,12,04,08,38,10.30
2007,12,04,08,39,10.30
2007,12,04,08,40,10.30
2007,12,04,08,41,10.30
2007,12,04,08,42,10.30
2007,12,04,08,43,10.30
2007,12,04,08,44,10.30
2007,12,04,08,45,10.30
2007,12,04,08,46,10.30
2007,12,04,08,47,10.20
2007,12,04,08,48,10.20
2007,12,04,08,49,10.20
2007,12,04,08,50,10.10
2007,12,04,08,51,10.10
2007,12,04,08,52,10.10
2007,12,04,08,53,10.00
2007,12,04,08,54,10.00
2007,12,04,08,55,10.00
2007,12,04,08,56,10.00
2007,12,04,08,57,10.00
2007,12,04,08,58,10.00
2007,12,04,08,59,10.10
2007,12,04,09,00,10.10
2007,12,04,09,01,10.20
2007,12,04,09,02,10.20
2007,12,04,09,03,10.20
2007,12,04,09,04,10.10
2007,12,04,09,05,10.00
2007,12,04,09,06,10.00
2007,12,04,09,07,9.90
2007,12,04,09,08,9.90
2007,12,04,09,09,10.00
2007,12,04,09,10,10.00
2007,12,04,09,11,10.00
2007,12,04,09,12,10.10
2007,12,04,09,13,10.10
2007,12,04,09,14,10.10
2007,12,04,09,15,10.20
2007,12,04,09,16,10.20
2007,12,04,09,17,10.20
2007,12,04,09,18,10.30
2007,12,04,09,19,10.30
2007,12,04,09,20,10.40
2007,12,04,09,21,10.40
2007,12,04,09,22,10.50
2007,12,04,09,23,10.50
2007,12,04,09,24,10.60
2007,12,04,09,25,10.60
2007,12,04,09,26,10.70
2007,12,04,09,27,10.70
2007,12,04,09,28,10.80
2007,12,04,09,29,10.80
2007,12,04,09,30,10.90
2007,12,04,09,31,10.90
2007,12,04,09,32,10.90
2007,12,04,09,33,10.80
2007,12,04,09,34,10.80
2007,12,04,09,35,10.80
2007,12,04,09,36,10.80
2007,12,04,09,37,10.80
2007,12,04,09,38,10.70
2007,12,04,09,39,10.70
2007,12,04,09,40,10.70
2007,12,04,09,41,10.70
2007,12,04,09,42,10.70
2007,12,04,09,43,10.80
2007,12,04,09,44,10.80
2007,12,04,09,45,10.80
2007,12,04,09,46,10.70
2007,12,04,09,47,10.60
2007,12,04,09,48,10.60
2007,12,04,09,49,10.50
2007,12,04,09,50,10.40
2007,12,04,09,51,10.40
2007,12,04,09,52,10.30
2007,12,04,09,53,10.30
2007,12,04,09,54,10.30
2007,12,04,09,55,10.30
2007,12,04,09,56,10.20
2007,12,04,09,57,10.30
2007,12,04,09,58,10.30
2007,12,04,09,59,10.30
2007,12,04,10,00,10.30
2007,12,04,10,01,10.30
2007,12,04,10,02,10.30
2007,12,04,10,03,10.20
2007,12,04,10,04,10.20
2007,12,04,10,05,10.20
2007,12,04,10,06,10.20
2007,12,04,10,07,10.10
2007,12,04,10,08,10.00
2007,12,04,10,09,10.00
2007,12,04,10,10,9.90
2007,12,04,10,11,9.90
2007,12,04,10,12,9.90
2007,12,04,10,13,9.90
2007,12,04,10,14,9.90
2007,12,04,10,15,9.90
2007,12,04,10,16,9.90
2007,12,04,10,17,10.00
2007,12,04,10,18,10.00
2007,12,04,10,19,10.00
2007,12,04,10,20,10.10
2007,12,04,10,21,10.10
2007,12,04,10,22,10.10
2007,12,04,10,23,10.20
2007,12,04,10,24,10.20
2007,12,04,10,25,10.20
2007,12,04,10,26,10.20
2007,12,04,10,27,10.20
2007,12,04,10,28,10.20
2007,12,04,10,29,10.20
2007,12,04,10,30,10.20
2007,12,04,10,31,10.10
2007,12,04,10,32,10.10
2007,12,04,10,33,10.10
2007,12,04,10,34,10.10
2007,12,04,10,35,10.10
2007,12,04,10,36,10.10
2007,12,04,10,37,10.20
2007,12,04,10,38,10.20
2007,12,04,10,39,10.20
2007,12,04,10,40,10.30
2007,12,04,10,41,10.20
2007,12,04,10,42,10.20
2007,12,04,10,43,10.20
2007,12,04,10,44,10.10
2007,12,04,10,45,10.10
2007,12,04,10,46,10.10
2007,12,04,10,47,10.10
2007,12,04,10,48,10.10
2007,12,04,10,49,10.10
2007,12,04,10,50,10.10
2007,12,04,10,51,10.10
2007,12,04,10,52,10.10
2007,12,04,10,53,10.10
2007,12,04,10,54,10.10
2007,12,04,10,55,10.20
2007,12,04,10,56,10.20
2007,12,04,10,57,10.20
2007,12,04,10,58,10.20
2007,12,04,10,59,10.20
2007,12,04,11,00,10.20
2007,12,04,11,01,10.20
2007,12,04,11,02,10.20
2007,12,04,11,03,10.30
2007,12,04,11,04,10.30
2007,12,04,11,05,10.30
2007,12,04,11,06,10.30
2007,12,04,11,07,10.30
2007,12,04,11,08,10.30
2007,12,04,11,09,10.30
2007,12,04,11,10,10.30
2007,12,04,11,11,10.30
2007,12,04,11,12,10.30
2007,12,04,11,13,10.40
2007,12,04,11,14,10.40
2007,12,04,11,15,10.40
2007,12,04,11,16,10.40
2007,12,04,11,17,10.40
2007,12,04,11,18,10.50
2007,12,04,11,19,10.50
2007,12,04,11,20,10.60
2007,12,04,11,21,10.60
2007,12,04,11,22,10.60
2007,12,04,11,23,10.60
2007,12,04,11,24,10.60
2007,12,04,11,25,10.70
2007,12,04,11,26,10.70
2007,12,04,11,27,10.70
2007,12,04,11,28,10.70
2007,12,04,11,29,10.70
2007,12,04,11,30,10.70
2007,12,04,11,31,10.70
2007,12,04,11,32,10.70
2007,12,04,11,33,10.70
2007,12,04,11,34,10.60
2007,12,04,11,35,10.60
2007,12,04,11,36,10.60
2007,12,04,11,37,10.70
2007,12,04,11,38,10.70
2007,12,04,11,39,10.70
2007,12,04,11,40,10.70
2007,12,04,11,41,10.80
2007,12,04,11,42,10.80
2007,12,04,11,43,10.80
2007,12,04,11,44,10.80
2007,12,04,11,45,10.80
2007,12,04,11,46,10.80
2007,12,04,11,47,10.80
2007,12,04,11,48,10.80
2007,12,04,11,49,10.80
2007,12,04,11,50,10.70
2007,12,04,11,51,10.70
2007,12,04,11,52,10.70
2007,12,04,11,53,10.70
2007,12,04,11,54,10.70
2007,12,04,11,55,10.70
2007,12,04,11,56,10.70
2007,12,04,11,57,10.70
2007,12,04,11,58,10.70
2007,12,04,11,59,10.70
2007,12,04,12,00,10.70
2007,12,04,12,01,10.70
2007,12,04,12,02,10.60
2007,12,04,12,03,10.60
2007,12,04,12,04,10.60
2007,12,04,12,05,10.50
2007,12,04,12,06,10.50
2007,12,04,12,07,10.40
2007,12,04,12,08,10.40
2007,12,04,12,09,10.50
2007,12,04,12,10,10.60
2007,12,04,12,11,10.60
2007,12,04,12,12,10.60
2007,12,04,12,13,10.50
2007,12,04,12,14,10.60
2007,12,04,12,15,10.60
2007,12,04,12,16,10.60
2007,12,04,12,17,10.60
2007,12,04,12,18,10.60
2007,12,04,12,19,10.60
2007,12,04,12,20,10.70
2007,12,04,12,21,10.70
2007,12,04,12,22,10.70
2007,12,04,12,23,10.70
2007,12,04,12,24,10.70
2007,12,04,12,25,10.80
2007,12,04,12,26,10.80
2007,12,04,12,27,10.80
2007,12,04,12,28,10.80
2007,12,04,12,29,10.90
2007,12,04,12,30,10.90
2007,12,04,12,31,10.80
2007,12,04,12,32,10.80
2007,12,04,12,33,10.80
2007,12,04,12,34,10.70
2007,12,04,12,35,10.70
2007,12,04,12,36,10.70
2007,12,04,12,37,10.70
2007,12,04,12,38,10.70
2007,12,04,12,39,10.70
2007,12,04,12,40,10.70
2007,12,04,12,41,10.60
2007,12,04,12,42,10.60
2007,12,04,12,43,10.60
2007,12,04,12,44,10.60
2007,12,04,12,45,10.60
2007,12,04,12,46,10.60
2007,12,04,12,47,10.70
2007,12,04,12,48,10.70
2007,12,04,12,49,10.70
2007,12,04,12,50,10.70
2007,12,04,12,51,10.70
2007,12,04,12,52,10.70
2007,12,04,12,53,10.70
2007,12,04,12,54,10.70
2007,12,04,12,55,10.70
2007,12,04,12,56,10.70
2007,12,04,12,57,10.70
2007,12,04,12,58,10.70
2007,12,04,12,59,10.70
2007,12,04,13,00,10.70
2007,12,04,13,01,10.70
2007,12,04,13,02,10.70
2007,12,04,13,03,10.70
2007,12,04,13,04,10.70
2007,12,04,13,05,10.80
2007,12,04,13,06,10.80
2007,12,04,13,07,10.80
2007,12,04,13,08,10.80
2007,12,04,13,09,10.80
2007,12,04,13,10,10.70
2007,12,04,13,11,10.70
2007,12,04,13,12,10.70
2007,12,04,13,13,10.70
2007,12,04,13,14,10.70
2007,12,04,13,15,10.70
2007,12,04,13,16,10.80
2007,12,04,13,17,10.80
2007,12,04,13,18,10.80
2007,12,04,13,19,10.80
2007,12,04,13,20,10.80
2007,12,04,13,21,10.80
2007,12,04,13,22,10.80
2007,12,04,13,23,10.80
2007,12,04,13,24,10.80
2007,12,04,13,25,10.80
2007,12,04,13,26,10.80
2007,12,04,13,27,10.80
2007,12,04,13,28,10.80
2007,12,04,13,29,10.70
2007,12,04,13,30,10.70
2007,12,04,13,31,10.70
2007,12,04,13,32,10.70
2007,12,04,13,33,10.60
2007,12,04,13,34,10.60
2007,12,04,13,35,10.60
2007,12,04,13,36,10.50
2007,12,04,13,37,10.50
2007,12,04,13,38,10.40
2007,12,04,13,39,10.40
2007,12,04,13,40,10.30
2007,12,04,13,41,10.30
2007,12,04,13,42,10.30
2007,12,04,13,43,10.20
2007,12,04,13,44,10.20
2007,12,04,13,45,10.10
2007,12,04,13,46,10.10
2007,12,04,13,47,10.10
2007,12,04,13,48,10.10
2007,12,04,13,49,10.10
2007,12,04,13,50,10.10
2007,12,04,13,51,10.10
2007,12,04,13,52,10.10
2007,12,04,13,53,10.10
2007,12,04,13,54,10.00
2007,12,04,13,55,10.00
2007,12,04,13,56,10.00
2007,12,04,13,57,10.00
2007,12,04,13,58,9.90
2007,12,04,13,59,9.80
2007,12,04,14,00,9.80
2007,12,04,14,01,9.70
2007,12,04,14,02,9.70
2007,12,04,14,03,9.70
2007,12,04,14,04,9.70
2007,12,04,14,05,9.60
2007,12,04,14,06,9.60
2007,12,04,14,07,9.60
2007,12,04,14,08,9.60
2007,12,04,14,09,9.60
2007,12,04,14,10,9.60
2007,12,04,14,11,9.60
2007,12,04,14,12,9.60
2007,12,04,14,13,9.60
2007,12,04,14,14,9.60
2007,12,04,14,15,9.60
2007,12,04,14,16,9.50
2007,12,04,14,17,9.50
2007,12,04,14,18,9.50
2007,12,04,14,19,9.50
2007,12,04,14,20,9.50
2007,12,04,14,21,9.50
2007,12,04,14,22,9.50
2007,12,04,14,23,9.40
2007,12,04,14,24,9.40
2007,12,04,14,25,9.40
2007,12,04,14,26,9.40
2007,12,04,14,27,9.40
2007,12,04,14,28,9.40
2007,12,04,14,29,9.40
2007,12,04,14,30,9.40
2007,12,04,14,31,9.40
2007,12,04,14,32,9.40
2007,12,04,14,33,9.40
2007,12,04,14,34,9.40
2007,12,04,14,35,9.30
2007,12,04,14,36,9.30
2007,12,04,14,37,9.30
2007,12,04,14,38,9.30
2007,12,04,14,39,9.30
2007,12,04,14,40,9.30
2007,12,04,14,41,9.30
2007,12,04,14,42,9.30
2007,12,04,14,43,9.30
2007,12,04,14,44,9.30
2007,12,04,14,45,9.30
2007,12,04,14,46,9.30
2007,12,04,14,47,9.30
2007,12,04,14,48,9.30
2007,12,04,14,49,9.30
2007,12,04,14,50,9.30
2007,12,04,14,51,9.30
2007,12,04,14,52,9.30
2007,12,04,14,53,9.30
2007,12,04,14,54,9.30
2007,12,04,14,55,9.30
2007,12,04,14,56,9.30
2007,12,04,14,57,9.30
2007,12,04,14,58,9.30
2007,12,04,14,59,9.30
2007,12,04,15,00,9.30
2007,12,04,15,01,9.30
2007,12,04,15,02,9.30
2007,12,04,15,03,9.30
2007,12,04,15,04,9.30
2007,12,04,15,05,9.30
2007,12,04,15,06,9.30
2007,12,04,15,07,9.30
2007,12,04,15,08,9.30
2007,12,04,15,09,9.30
2007,12,04,15,10,9.30
2007,12,04,15,11,9.30
2007,12,04,15,12,9.30
2007,12,04,15,13,9.30
2007,12,04,15,14,9.30
2007,12,04,15,15,9.30
2007,12,04,15,16,9.30
2007,12,04,15,17,9.30
2007,12,04,15,18,9.30
2007,12,04,15,19,9.40
2007,12,04,15,20,9.40
2007,12,04,15,21,9.30
2007,12,04,15,22,9.30
2007,12,04,15,23,9.30
2007,12,04,15,24,9.30
2007,12,04,15,25,9.40
2007,12,04,15,26,9.40
2007,12,04,15,27,9.40
2007,12,04,15,28,9.40
2007,12,04,15,29,9.40
2007,12,04,15,30,9.40
2007,12,04,15,31,9.30
2007,12,04,15,32,9.30
2007,12,04,15,33,9.30
2007,12,04,15,34,9.30
2007,12,04,15,35,9.30
2007,12,04,15,36,9.30
2007,12,04,15,37,9.30
2007,12,04,15,38,9.40
2007,12,04,15,39,9.40
2007,12,04,15,40,9.50
2007,12,04,15,41,9.50
2007,12,04,15,42,9.60
2007,12,04,15,43,9.60
2007,12,04,15,44,9.60
2007,12,04,15,45,9.60
2007,12,04,15,46,9.60
2007,12,04,15,47,9.60
2007,12,04,15,48,9.60
2007,12,04,15,49,9.60
2007,12,04,15,50,9.60
2007,12,04,15,51,9.60
2007,12,04,15,52,9.60
2007,12,04,15,53,9.50
2007,12,04,15,54,9.40
2007,12,04,15,55,9.40
2007,12,04,15,56,9.30
2007,12,04,15,57,9.30
2007,12,04,15,58,9.30
2007,12,04,15,59,9.20
2007,12,04,16,00,9.20
2007,12,04,16,01,9.20
2007,12,04,16,02,9.20
2007,12,04,16,03,9.10
2007,12,04,16,04,9.10
2007,12,04,16,05,9.10
2007,12,04,16,06,9.10
2007,12,04,16,07,9.10
2007,12,04,16,08,9.10
2007,12,04,16,09,9.10
2007,12,04,16,10,9.10
2007,12,04,16,11,9.10
2007,12,04,16,12,9.10
2007,12,04,16,13,9.00
2007,12,04,16,14,9.00
2007,12,04,16,15,8.90
2007,12,04,16,16,8.90
2007,12,04,16,17,8.90
2007,12,04,16,18,8.80
2007,12,04,16,19,8.80
2007,12,04,16,20,8.70
2007,12,04,16,21,8.70
2007,12,04,16,22,8.70
2007,12,04,16,23,8.70
2007,12,04,16,24,8.60
2007,12,04,16,25,8.60
2007,12,04,16,26,8.60
2007,12,04,16,27,8.50
2007,12,04,16,28,8.50
2007,12,04,16,29,8.50
2007,12,04,16,30,8.40
2007,12,04,16,31,8.40
2007,12,04,16,32,8.40
2007,12,04,16,33,8.40
2007,12,04,16,34,8.30
2007,12,04,16,35,8.30
2007,12,04,16,36,8.30
2007,12,04,16,37,8.30
2007,12,04,16,38,8.30
2007,12,04,16,39,8.30
2007,12,04,16,40,8.20
2007,12,04,16,41,8.20
2007,12,04,16,42,8.30
2007,12,04,16,43,8.30
2007,12,04,16,44,8.30
2007,12,04,16,45,8.40
2007,12,04,16,46,8.50
2007,12,04,16,47,8.60
2007,12,04,16,48,8.70
2007,12,04,16,49,8.70
2007,12,04,16,50,8.80
2007,12,04,16,51,8.80
2007,12,04,16,52,8.90
2007,12,04,16,53,8.90
2007,12,04,16,54,8.90
2007,12,04,16,55,8.90
2007,12,04,16,56,8.90
2007,12,04,16,57,8.90
2007,12,04,16,58,8.90
2007,12,04,16,59,9.00
2007,12,04,17,00,9.00
2007,12,04,17,01,9.10
2007,12,04,17,02,9.20
2007,12,04,17,03,9.30
2007,12,04,17,04,9.30
2007,12,04,17,05,9.30
2007,12,04,17,06,9.20
2007,12,04,17,07,9.20
2007,12,04,17,08,9.20
2007,12,04,17,09,9.20
2007,12,04,17,10,9.20
2007,12,04,17,11,9.30
2007,12,04,17,12,9.30
2007,12,04,17,13,9.30
2007,12,04,17,14,9.30
2007,12,04,17,15,9.40
2007,12,04,17,16,9.40
2007,12,04,17,17,9.40
2007,12,04,17,18,9.40
2007,12,04,17,19,9.50
2007,12,04,17,20,9.50
2007,12,04,17,21,9.50
2007,12,04,17,22,9.60
2007,12,04,17,23,9.60
2007,12,04,17,24,9.60
2007,12,04,17,25,9.60
2007,12,04,17,26,9.60
2007,12,04,17,27,9.60
2007,12,04,17,28,9.60
2007,12,04,17,29,9.60
2007,12,04,17,30,9.60
2007,12,04,17,31,9.50
2007,12,04,17,32,9.50
2007,12,04,17,33,9.50
2007,12,04,17,34,9.50
2007,12,04,17,35,9.60
2007,12,04,17,36,9.60